Weather History for Bangor, ME

Change the Weather History Date:

Tuesday, December 17, 2013

  Actual Average Record
Temperature  
Mean Temperature -2 °F 24 °F  
Max Temperature 11 °F 33 °F 60 °F (2000)
Min Temperature -16 °F 15 °F -21 °F (1943)
Degree Days  
Heating Degree Days 67 41  
Month to date heating degree days 752 638  
Since 1 July heating degree days 2337 2307  
Cooling Degree Days 0 0  
Month to date cooling degree days 0 0  
Year to date cooling degree days 355 318  
Moisture  
Dew Point -6 °F    
Average Humidity 67    
Maximum Humidity 83    
Minimum Humidity 50    
Precipitation  
Precipitation 0.03 in 0.10 in 2.93 in (1973)
Month to date precipitation 1.08 2.10  
Year to date precipitation 38.21 40.55  
Snow  
Snow 0.80 in 0.50 in 4.60 in (1970)
Month to date snowfall 12.1 7.1  
Since 1 July snowfall 12.8 9.5  
Snow Depth 6.00 in    
Sea Level Pressure  
Sea Level Pressure 30.23 in    
Wind  
Wind Speed 3 mph (North)    
Max Wind Speed 9 mph    
Max Gust Speed 12 mph    
Visibility 8 miles    
Events Snow    
T = Trace of Precipitation, MM = Missing Value Source: NWS Daily Summary

Daily Weather History Graph

Daily Weather History Graph

Search for Another Location

Airport:

Trip Planner

Search our weather history database for the weather conditions in past years. The results will help you decide how hot, cold, wet, or windy it might be!

Date:

Astronomy

Dec. 17, 2013 Rise Set
Actual Time 7:07 AM EST 3:55 PM EST
Civil Twilight 6:33 AM EST 4:29 PM EST
Nautical Twilight 5:56 AM EST 5:06 PM EST
Astronomical Twilight 5:21 AM EST 5:42 PM EST
Moon 4:35 PM EST (12/17) 6:58 AM EST (12/17)
Length of Visible Light 9h 55m
Length of Day
8h 48m
Full, 100% of the Moon is Illuminated
Dec 17
Full
Dec 25
Last Quarter
Jan 1
New
Jan 7
First Quarter
Jan 15
Full

Hourly Weather History & Observations

Time (EST) Temp. Windchill Dew Point Humidity Pressure Visibility Wind Dir Wind Speed Gust Speed Precip Events Conditions
12:53 AM -2.0 °F - -13.0 °F 60% 30.21 in 10.0 mi Calm Calm - N/A   Clear
1:53 AM -7.1 °F -18.1 °F -15.0 °F 68% 30.23 in 10.0 mi West 4.6 mph - N/A   Clear
2:53 AM -6.0 °F -16.9 °F -14.1 °F 68% 30.23 in 10.0 mi WNW 4.6 mph - N/A   Clear
3:53 AM -6.0 °F -18.6 °F -13.0 °F 72% 30.25 in 10.0 mi WSW 5.8 mph - N/A   Clear
4:53 AM -9.9 °F - -17.0 °F 71% 30.26 in 10.0 mi Calm Calm - N/A   Clear
5:53 AM -9.9 °F - -16.1 °F 74% 30.28 in 10.0 mi Calm Calm - N/A   Clear
6:53 AM -11.9 °F - -16.1 °F 82% 30.30 in 10.0 mi Calm Calm - N/A   Clear
7:53 AM -11.9 °F - -17.0 °F 78% 30.32 in 10.0 mi Calm Calm - N/A   Clear
8:53 AM -7.1 °F - -13.0 °F 75% 30.34 in 10.0 mi Calm Calm - N/A   Clear
9:53 AM -0.0 °F - -9.9 °F 63% 30.34 in 10.0 mi Calm Calm - N/A   Clear
10:53 AM 3.9 °F -3.4 °F -9.0 °F 55% 30.30 in 10.0 mi NE 3.5 mph - N/A   Clear
11:53 AM 7.0 °F - -8.0 °F 51% 30.27 in 10.0 mi Calm Calm - N/A   Partly Cloudy
12:53 PM 8.1 °F - -6.0 °F 53% 30.27 in 10.0 mi Calm Calm - N/A   Partly Cloudy
1:53 PM 10.0 °F - -6.0 °F 48% 30.27 in 10.0 mi Calm Calm - N/A   Scattered Clouds
2:53 PM 9.0 °F - -5.1 °F 53% 30.26 in 10.0 mi Calm Calm - N/A   Mostly Cloudy
3:53 PM 10.0 °F 1.8 °F -2.9 °F 56% 30.25 in 10.0 mi NNE 4.6 mph - N/A   Overcast
4:53 PM 9.0 °F 0.6 °F -2.9 °F 59% 30.23 in 10.0 mi North 4.6 mph - N/A   Overcast
5:53 PM 7.0 °F -3.3 °F -2.9 °F 64% 30.22 in 10.0 mi North 5.8 mph - N/A   Overcast
6:53 PM 7.0 °F -3.3 °F -2.0 °F 67% 30.20 in 10.0 mi North 5.8 mph - N/A   Overcast
7:53 PM 9.0 °F -0.9 °F -0.0 °F 67% 30.19 in 7.0 mi North 5.8 mph - 0.00 in Snow Light Snow
8:53 PM 8.1 °F -2.0 °F 1.0 °F 73% 30.19 in 4.0 mi North 5.8 mph - 0.00 in Snow Light Snow
9:01 PM 8.1 °F -3.2 °F 1.0 °F 73% 30.16 in 2.0 mi North 6.9 mph - 0.00 in Snow Light Snow
9:53 PM 8.1 °F -4.3 °F 3.0 °F 80% 30.17 in 1.5 mi North 8.1 mph - 0.00 in Snow Light Snow
10:34 PM 9.0 °F -0.9 °F 3.9 °F 80% 30.14 in 0.8 mi North 5.8 mph - 0.01 in Snow Light Snow
10:53 PM 9.0 °F -2.2 °F 5.0 °F 84% 30.14 in 0.8 mi NNE 6.9 mph - 0.01 in Snow Light Snow
11:38 PM 10.0 °F -0.9 °F 5.0 °F 80% 30.09 in 0.8 mi NNE 6.9 mph - 0.02 in Snow Light Snow
11:53 PM 10.0 °F -0.9 °F 6.1 °F 84% 30.10 in 0.8 mi North 6.9 mph - 0.02 in Snow Light Snow